User: anonymous   Login
Location: Unspecified
(0.0000°N, 0.0000°E)
Time: 00:48:03
(UTC+00:00)
Language:

FORMOSAT 3F - Orbit

View from above orbital plane
View from above orbital plane
View from above satellite
View from above satellite

Ground track
Ground track

The orbit data is extracted from the following two-line orbital elements,

1 29052U 06011F   21023.59316344  .00000085  00000-0  49413-4 0  9997
2 29052  72.0345  80.7077 0040917 341.1267  18.8351 14.28967745771144
Epoch (UTC): 23 January 2021 14:14:09
Eccentricity: 0.0040917
inclination: 72.0345°
perigee height: 766 km
apogee height: 824 km
right ascension of ascending node: 80.7077°
argument of perigee: 341.1267°
revolutions per day: 14.28967745
mean anomaly at epoch: 18.8351°
orbit number at epoch: 77114

The dashed part of the orbit path shows where the satellite is in the earth's shadow,  

DLR